ZL3GL-4 Weather Reports


Display with metric or nautical units.
time (UTC)temp
F
wind
direction
speed
MPH
gust
MPH
rain 1hr
in
rain 24hr
in
rain mn
in
humidity
%
barometer
mb
20260504050114 53 69 1.0 2.0 0.00 0.00 0.00 96 1031.0
20260504044710 54 69 2.0 2.0 0.00 0.00 0.00 95 1031.0
20260504043305 54 13 2.0 3.0 0.00 0.00 0.00 94 1031.0
20260504041905 55 21 1.0 2.0 0.00 0.00 0.00 92 1031.0
20260504040459 55 68 3.0 4.0 0.00 0.00 0.00 92 1030.9
20260504035054 55 353 4.0 5.0 0.00 0.00 0.00 92 1030.8
20260504033654 55 314 3.0 3.0 0.00 0.00 0.00 92 1030.7
20260504032247 55 20 2.0 3.0 0.00 0.00 0.00 91 1030.7
20260504030842 55 14 3.0 3.0 0.00 0.00 0.00 91 1030.5
20260504025437 55 23 2.0 3.0 0.00 0.00 0.00 91 1030.5
20260504024036 56 339 4.0 6.0 0.00 0.00 0.00 89 1030.6
20260504022634 56 342 3.0 4.0 0.00 0.00 0.00 89 1030.7
20260504021226 56 11 5.0 4.0 0.00 0.00 0.00 89 1030.7
20260504015823 56 359 3.0 3.0 0.00 0.00 0.00 88 1030.9
20260504014422 56 24 1.0 3.0 0.00 0.00 0.00 88 1030.9
20260504011612 56 7 4.0 4.0 0.00 0.00 0.00 89 1031.2
20260504010210 56 332 5.0 3.0 0.00 0.00 0.00 92 1031.4
20260504004804 56 359 4.0 5.0 0.00 0.00 0.00 93 1031.6
20260504003403 55 345 3.0 6.0 0.00 0.00 0.00 93 1031.7
20260504001957 56 346 3.0 3.0 0.00 0.00 0.00 92 1032.0
20260504000553 56 34 1.0 5.0 0.00 0.00 0.00 92 1032.2
20260503233746 56 10 4.0 4.0 0.00 0.00 0.00 94 1032.5
20260503232345 56 11 0.0 1.0 0.00 0.00 0.00 92 1032.5
20260503230938 56 343 4.0 5.0 0.00 0.00 0.00 93 1032.5
20260503225538 56 332 2.0 0.0 0.00 0.00 0.00 95 1032.6
20260503224137 55 343 3.0 2.0 0.00 0.00 0.00 97 1032.5
20260503222729 54 13 2.0 2.0 0.00 0.00 0.00 98 1032.4
20260503221326 53 291 3.0 4.0 0.00 0.00 0.00 99 1032.4
20260503215922 53 270 1.0 1.0 0.00 0.00 0.00 99 1032.5
20260503214518 53 250 3.0 1.0 0.00 0.00 0.00 100 1032.4
20260503213114 52 305 3.0 2.0 0.00 0.00 0.00 100 1032.3
20260503211709 52 266 3.0 2.0 0.00 0.00 0.00 100 1032.3
20260503210305 51 246 2.0 2.0 0.00 0.00 0.00 100 1032.3
20260503204901 50 259 4.0 3.0 0.00 0.00 0.00 100 1032.3
20260503202055 50 229 3.0 3.0 0.00 0.00 0.00 100 1032.1
20260503200656 50 208 1.0 0.0 0.00 0.00 0.00 100 1031.8
20260503193846 49 294 0.0 0.0 0.00 0.00 0.00 100 1031.6
20260503192444 50 294 0.0 0.0 0.00 0.00 0.00 100 1031.4
20260503191038 49 312 2.0 2.0 0.00 0.00 0.00 100 1031.3
20260503185635 49 260 0.0 0.0 0.00 0.00 0.00 100 1031.3
20260503184231 49 184 0.0 0.0 0.00 0.00 0.00 100 1031.2
20260503182827 49 283 0.0 0.0 0.00 0.00 0.00 100 1031.0
20260503181423 49 277 1.0 1.0 0.00 0.00 0.00 100 1031.0
20260503174617 49 259 0.0 0.0 0.00 0.00 0.00 100 1031.0
20260503173213 48 273 0.0 0.0 0.00 0.00 0.00 100 1031.1
20260503171813 48 309 2.0 2.0 0.00 0.00 0.00 100 1031.1
20260503170407 48 305 1.0 1.0 0.00 0.00 0.00 100 1031.0
20260503140117 44 25 0.0 2.0 0.00 0.00 0.00 98 1031.7
20260503130506 46 250 1.0 3.0 0.00 0.00 0.00 100 1031.9
20260503100217 49 274 3.0 2.0 0.00 0.00 0.00 100 1032.7
20260503080948 50 262 4.0 5.0 0.00 0.00 0.00 97 1032.9
20260503072739 50 264 2.0 3.0 0.00 0.00 0.00 95 1033.1